Weather observations for the past three days for
Central Colorado Regional Airport
Imperial (Metric)
Date Time (mdt) Wind (mph) Vis. (mi.) Weather Sky Cond. Temperature (ºF) Relative Humidity Wind Chill (°F) Heat Index (°F) Pressure Precipitation (in)
Air Dwpt 6 hour altimeter (in) sea level (mb) 1 hr 3 hr 6 hr
Max. Min.
24 00:15 Calm 10.00 Fair CLR 51.6 39.2 63% 30.52 0.0
23 23:55 Calm 10.00 Fair CLR 52 39.2 81.3 52 62% 30.52 0.0
23 23:35 Calm 10.00 Fair CLR 54 39.6 58% 30.52 0.0
23 23:15 Calm 10.00 Fair CLR 53.1 39.6 60% 30.51 0.0
23 22:55 Calm 10.00 Fair CLR 54.9 40.1 58% 30.51 0.0
23 22:35 Calm 10.00 Fair CLR 57 39.7 53% 30.51 0.0
23 22:15 Calm 10.00 Fair CLR 59.5 40.1 49% 30.51 0.0
23 21:55 Calm 10.00 Fair CLR 61.7 39.7 45% 30.5 0.0
23 21:35 Calm 10.00 Fair CLR 62.6 39.2 42% 30.5 0.0
23 21:15 Calm 10.00 Fair CLR 62.6 40.1 44% 30.49 0.0
23 20:55 Calm 10.00 Partly Cloudy SCT100 64 39.4 40% 30.49 0.0
23 20:35 Calm 10.00 Mostly Cloudy BKN100 65.8 37.9 36% 30.49 0.0
23 20:15 Calm 10.00 Partly Cloudy SCT100 65.1 40.8 41% 30.48 0.0
23 19:55 Calm 10.00 Partly Cloudy SCT110 65.5 42.8 44% 30.46 0.0
23 19:35 Calm 10.00 Partly Cloudy SCT110 70 37.8 31% 30.44 0.0
23 19:15 Calm 10.00 Mostly Cloudy SCT046 SCT065 BKN085 70.7 37.8 30% 30.43 0.0
23 18:55 Calm 7.00 Thunderstorm Light Rain in Vicinity SCT044 BKN100 OVC120 74.7 34.3 23% 30.42 0.0
23 18:35 Calm 10.00 Mostly Cloudy BKN120 77.2 25.3 15% 77 30.4 0.0
23 18:15 Calm 7.00 Fair CLR 80.6 25.3 13% 79 30.39 0.0
23 17:55 Calm 7.00 Fair CLR 80.2 25.5 83.7 72.1 13% 78 30.38 0.0
23 17:35 Calm 7.00 Fair CLR 79.7 25 13% 78 30.38 0.0
23 17:15 Calm 7.00 Fair CLR 78.8 21.2 12% 77 30.38 0.0
23 16:55 Calm 7.00 Partly Cloudy SCT120 80.8 21 11% 79 30.38 0.0
23 16:35 Calm 10.00 Partly Cloudy SCT120 83.5 22.8 11% 81 30.38 0.0
23 16:15 Calm 7.00 Fair CLR 82 23.7 12% 80 30.38 0.0
23 15:55 Calm 10.00 Fair CLR 81.1 23.7 12% 79 30.38 0.0
23 15:35 Calm 10.00 Fair CLR 80.6 25 13% 79 30.38 0.0
23 15:15 Calm 10.00 Fair CLR 81 25.7 13% 79 30.39 0.0
23 14:55 Calm 10.00 Fair CLR 80.2 26.4 14% 78 30.4 0.0
23 14:15 Calm 7.00 Fair CLR 80.8 25.2 13% 79 30.4 0.0
23 13:55 Calm 10.00 Fair CLR 79.2 26.8 14% 78 30.4 0.0
23 13:35 Calm 10.00 Fair CLR 78.8 27.9 15% 78 30.4 0.0
23 13:15 Calm 10.00 Fair CLR 78.3 31.6 18% 77 30.41 0.0
23 12:55 Calm 10.00 Fair CLR 76.5 32.4 20% 77 30.42 0.0
23 12:35 Calm 10.00 Fair CLR 75.2 32.4 21% 76 30.42 0.0
23 12:15 Calm 10.00 Fair CLR 73.9 34.3 24% 30.42 0.0
23 11:55 Calm 10.00 Fair CLR 72 35.1 72.1 41.4 26% 30.43 0.0
23 11:35 Calm 10.00 Fair CLR 71.2 35.8 27% 30.44 0.0
23 11:15 Calm 10.00 Fair CLR 69.3 37.9 32% 30.44 0.0
23 10:55 Calm 10.00 Fair CLR 68 37.6 33% 30.45 0.0
23 10:15 Calm 10.00 Fair CLR 64.6 38.8 39% 30.45 0.0
23 09:55 Calm 10.00 Fair CLR 63.7 38.7 40% 30.45 0.0
23 09:35 Calm 10.00 Fair CLR 61.9 38.8 43% 30.46 0.0
23 09:15 Calm 10.00 Fair CLR 60.3 39.2 46% 30.47 0.0
23 08:55 Calm 10.00 Fair CLR 58.5 39.6 50% 30.47 0.0
23 08:35 Calm 10.00 Fair CLR 56.7 40.1 54% 30.48 0.0
23 08:15 Calm 10.00 Fair CLR 54.3 40.8 60% 30.48 0.0
23 07:55 Calm 10.00 Fair CLR 52 40.8 66% 30.49 0.0
23 07:35 Calm 10.00 Fair CLR 49.5 40.6 72% 30.49 0.0
23 07:15 Calm 10.00 Fair CLR 46.8 39.9 77% 30.49 0.0
23 06:55 Calm 10.00 Fair CLR 44.8 39.4 81% 30.48 0.0
23 06:35 Calm 10.00 Fair CLR 41.9 37.4 84% 30.48 0.0
23 06:15 Calm 10.00 Fair CLR 41.9 37.2 84% 30.47 0.0
23 05:55 Calm 10.00 Fair CLR 41.9 37.2 48.9 41.9 84% 30.47 0.0
23 05:35 Calm 10.00 Fair CLR 43.9 38.8 83% 30.46 0.0
23 05:15 Calm 10.00 Fair CLR 45.9 39.2 78% 30.46 0.0
23 04:55 Calm 10.00 Fair CLR 45.7 39.4 79% 30.46 0.0
23 04:35 Calm 10.00 Fair CLR 46.4 40.3 79% 30.45 0.0
23 04:15 Calm 10.00 Fair CLR 43.9 39.7 85% 30.46 0.0
23 03:55 Calm 10.00 Fair CLR 45.3 39.7 81% 30.46 0.0
23 03:35 Calm 10.00 Fair CLR 44.8 40.3 84% 30.46 0.0
23 03:15 Calm 10.00 Fair CLR 46 40.8 82% 30.46 0.0
23 02:55 Calm 10.00 Fair CLR 46.4 41 82% 30.47 0.0
23 02:35 Calm 10.00 Fair CLR 47.1 41 79% 30.47 0.0
23 02:15 Calm 10.00 Fair CLR 45.5 40.3 82% 30.47 0.0
23 01:55 Calm 10.00 Fair CLR 47.5 41.7 81% 30.47 0.0
23 01:35 Calm 10.00 Fair CLR 46 41.2 83% 30.47 0.0
23 01:15 Calm 10.00 Fair CLR 45.5 41.5 86% 30.47 0.0
23 00:55 Calm 10.00 Fair CLR 46.2 41.5 84% 30.47 0.0
23 00:35 Calm 10.00 Fair CLR 47.1 42.3 83% 30.46 0.0
23 00:15 Calm 10.00 Fair CLR 48.4 42.8 81% 30.47 0.0
22 23:55 Calm 10.00 Fair CLR 47.8 43 64.4 47.8 83% 30.47 0.0
22 23:35 Calm 10.00 Fair CLR 49.3 43 79% 30.47 0.0
22 23:15 Calm 10.00 Fair CLR 50.5 44.1 79% 30.46 0.0
22 22:55 Calm 10.00 Fair CLR 50 44.4 81% 30.46 0.0
22 22:35 Calm 10.00 Fair CLR 51.4 45.1 79% 30.46 0.0
22 22:15 Calm 10.00 Fair CLR 51.4 44.4 77% 30.46 0.0
22 21:55 Calm 10.00 Fair CLR 50.7 44.6 80% 30.46 0.0
22 21:35 Calm 10.00 Fair CLR 52 44.8 77% 30.46 0.0
22 21:15 Calm 10.00 Partly Cloudy SCT095 54 45 72% 30.45 0.0
22 20:55 Calm 10.00 Partly Cloudy SCT095 54.5 45.5 72% 30.46 0.0
22 20:35 Calm 10.00 Fair CLR 55.2 45 69% 30.45 0.0
22 20:15 Calm 10.00 Fair CLR 56.5 44.4 64% 30.44 0.0
22 19:55 Calm 10.00 Fair CLR 58.6 43.3 57% 30.44 0.0
22 19:35 Calm 10.00 Fair CLR 60.8 43 52% 30.42 0.0
22 19:15 Calm 10.00 Thunderstorm in Vicinity CLR 61 44.6 55% 30.42 0.0
22 18:55 Calm 10.00 Partly Cloudy SCT047 SCT060 SCT110 64.2 45.1 50% 30.41 0.0
22 18:35 Calm 10.00 Thunderstorm Light Drizzle in Vicinity SCT050 BKN070 BKN085 64 46.6 53% 30.4 0.0
22 18:15 Calm 10.00 Overcast BKN070 OVC080 63.7 45.9 52% 30.41 0.0
22 17:55 Calm 10.00 Partly Cloudy SCT080 63 45.7 77 61.2 53% 30.41 0.0
22 17:35 Calm 7.00 Mostly Cloudy SCT024 SCT043 BKN075 62.2 50.9 67% 30.4 0.0
22 17:15 Calm 5.00 Thunderstorm Light Rain in Vicinity SCT065 BKN075 OVC085 62.2 47.7 59% 30.4 0.0
22 16:55 Calm 10.00 Thunderstorm Rain SCT065 BKN080 OVC090 69.3 37 31% 30.37 0.0
22 16:35 Calm 10.00 Thunderstorm BKN100 OVC120 73.2 34.5 24% 30.35 0.0
22 16:15 Calm 10.00 Mostly Cloudy SCT090 BKN120 74.7 28.4 18% 30.34 0.0
22 15:35 Calm 10.00 Fair CLR 75.4 28.9 18% 76 30.35 0.0
22 15:15 Calm 10.00 Fair CLR 76.3 29.7 18% 76 30.35 0.0
22 14:55 Calm 10.00 Fair CLR 75.9 29.5 18% 76 30.36 0.0
22 14:35 Calm 10.00 Fair CLR 73.8 30 20% 30.37 0.0
22 14:15 Calm 10.00 Fair CLR 75.7 31.5 20% 76 30.37 0.0
22 13:55 Calm 10.00 Partly Cloudy SCT110 74.7 32 21% 30.38 0.0
22 13:35 Calm 10.00 Fair CLR 73.8 31.5 21% 30.39 0.0
22 13:15 Calm 10.00 Partly Cloudy SCT085 73.6 33.4 23% 30.4 0.0
22 12:55 Calm 10.00 Fair CLR 71.8 32.7 24% 30.4 0.0
22 12:35 Calm 10.00 Fair CLR 70.7 34.9 27% 30.4 0.0
22 12:15 Calm 10.00 Fair CLR 71.4 35.8 27% 30.4 0.0
22 11:55 Calm 10.00 Fair CLR 68.2 37.4 69.3 42.8 32% 30.4 0.0
22 11:35 Calm 10.00 Fair CLR 68.9 37.6 32% 30.42 0.0
22 11:15 Calm 10.00 Fair CLR 66.9 38.7 36% 30.42 0.0
22 10:55 Calm 10.00 Fair CLR 65.7 38.8 37% 30.43 0.0
22 10:35 Calm 10.00 Fair CLR 64.4 42.4 45% 30.43 0.0
22 10:15 Calm 10.00 Fair CLR 63.7 42.3 46% 30.44 0.0
22 09:55 Calm 10.00 Fair CLR 61.3 42.3 50% 30.44 0.0
22 09:35 Calm 10.00 Fair CLR 59 42.1 54% 30.45 0.0
22 09:15 Calm 10.00 Fair CLR 57.9 42.1 56% 30.45 0.0
22 08:55 Calm 10.00 Fair CLR 55.8 41.9 60% 30.45 0.0
22 08:35 Calm 10.00 Fair CLR 54.9 42.3 63% 30.46 0.0
22 08:15 Calm 10.00 Fair CLR 52.2 43 71% 30.46 0.0
22 07:55 Calm 10.00 Fair CLR 50 42.4 75% 30.46 0.0
22 07:35 Calm 10.00 Fair CLR 49.1 42.4 78% 30.46 0.0
22 07:15 Calm 10.00 Fair CLR 47.8 42.1 81% 30.46 0.0
22 06:55 Calm 10.00 Fair CLR 44.2 41.7 91% 30.46 0.0
22 06:35 Calm 10.00 Fair CLR 43.2 40.5 90% 30.46 0.0
22 06:15 Calm 10.00 Fair CLR 42.8 39.6 88% 30.45 0.0
22 05:55 Calm 10.00 Fair CLR 43.7 39.7 50.2 42.6 86% 30.45 0.0
22 05:35 Calm 10.00 Fair CLR 42.8 39.7 89% 30.45 0.0
22 05:15 Calm 10.00 Fair CLR 44.1 41.9 92% 30.44 0.0
22 04:55 Calm 10.00 Fair CLR 42.8 40.3 91% 30.44 0.0
22 04:35 Calm 10.00 Fair CLR 43.3 40.5 90% 30.45 0.0
22 04:15 Calm 10.00 Fair CLR 44.6 41.9 90% 30.45 0.0
22 03:55 Calm 10.00 Fair CLR 44.1 41.9 92% 30.45 0.0
22 03:35 Calm 10.00 Fair CLR 45.1 41.9 88% 30.46 0.0
22 03:15 Calm 10.00 Fair CLR 45.5 43.2 92% 30.47 0.0
22 02:55 Calm 10.00 Fair CLR 44.6 42.4 92% 30.47 0.0
22 02:35 Calm 10.00 Fair CLR 46 42.8 89% 30.47 0.0
22 02:15 Calm 10.00 Partly Cloudy SCT060 46 43.2 90% 30.47 0.0
22 01:55 Calm 10.00 Partly Cloudy SCT060 47.1 44.1 89% 30.48 0.0
22 01:35 Calm 10.00 Fair CLR 46.9 44.1 90% 30.48 0.0
22 01:15 Calm 10.00 Mostly Cloudy BKN048 47.7 44.1 87% 30.49 0.0
22 00:55 Calm 10.00 Mostly Cloudy SCT046 BKN050 48.9 44.1 83% 30.49 0.0
22 00:35 Calm 10.00 Partly Cloudy SCT080 49.1 43.9 82% 30.49 0.0
22 00:15 Calm 10.00 Partly Cloudy SCT080 49.5 44.6 83% 30.49 0.0
21 23:55 Calm 10.00 Fair CLR 50.2 44.4 62.6 50.2 81% 30.5 0.0
21 23:35 Calm 10.00 Partly Cloudy SCT080 51.8 45.7 80% 30.49 0.0
21 23:15 Calm 10.00 Mostly Cloudy BKN080 53.2 45.7 76% 30.49 0.0
21 22:55 Calm 10.00 Mostly Cloudy BKN080 BKN100 53.6 46 76% 30.49 0.0
21 22:35 Calm 10.00 Mostly Cloudy BKN080 BKN100 54.9 46 72% 30.49 0.0
21 22:15 Calm 10.00 Overcast OVC070 56.5 46.4 69% 30.49 0.0
21 21:55 Calm 10.00 Overcast SCT060 OVC080 57.2 45.9 66% 30.49 0.0
21 21:35 Calm 10.00 Overcast OVC060 57.9 45.7 64% 30.48 0.0
21 21:15 Calm 10.00 Overcast OVC060 59 43.7 57% 30.48 0.0
21 20:55 Calm 10.00 Mostly Cloudy BKN060 BKN120 58.1 43.9 59% 30.47 0.0
21 20:35 Calm 10.00 Fair CLR 58.1 43.5 59% 30.47 0.0
21 20:15 Calm 10.00 Fair CLR 59.4 43.2 55% 30.47 0.0
21 19:55 Calm 10.00 Fair CLR 60.8 46.4 59% 30.46 0.0
21 19:35 Calm 10.00 Fair CLR 61.3 45 55% 30.45 0.0
21 19:15 Calm 10.00 Fair CLR 62.2 45 53% 30.45 0.0
21 18:55 Calm 10.00 Fair CLR 62.2 45.5 54% 30.45 0.0
21 18:35 Calm 10.00 Fair CLR 62.2 45.7 55% 30.44 0.0
21 18:15 Calm 10.00 Fair CLR 62.2 47.1 58% 30.45 0.0
21 17:55 Calm 7.00 Partly Cloudy SCT090 60.3 47.3 69.8 56.1 62% 30.45 0.0
21 17:35 Calm 10.00 Light Rain SCT034 SCT075 OVC090 56.7 47.1 71% 30.45 0.0
21 17:15 Calm 5.00 Rain BKN065 OVC075 56.3 46.8 71% 30.46 0.0
21 16:55 Calm 10.00 Partly Cloudy SCT055 62.4 42.1 48% 30.45 0.0
21 16:35 Calm 10.00 Partly Cloudy SCT037 SCT048 SCT065 61.9 43 50% 30.42 0.0
21 16:15 Calm 10.00 Thunderstorm in Vicinity SCT037 BKN049 OVC070 62.8 43.9 50% 30.43 0.0
21 15:55 Calm 10.00 Mostly Cloudy SCT037 SCT049 BKN060 66 48.7 54% 30.41 0.0
21 15:35 Calm 10.00 Thunderstorm Light Rain SCT035 SCT050 BKN075 62.8 49.8 63% 30.41 0.0
21 15:15 Calm 10.00 Mostly Cloudy SCT075 BKN100 66.2 45.7 48% 30.4 0.0
21 14:55 Calm 10.00 Thunderstorm in Vicinity SCT025 SCT037 SCT050 69.8 44.2 40% 30.39 0.0
21 14:35 Calm 10.00 Partly Cloudy SCT110 67.5 47.1 48% 30.4 0.0
21 14:15 Calm 10.00 Partly Cloudy SCT110 69.3 48.7 48% 30.41 0.0
21 13:55 Calm 10.00 Partly Cloudy SCT060 SCT110 67.5 48.7 51% 30.42 0.0
21 13:35 Calm 10.00 Partly Cloudy SCT070 SCT100 66 49.8 56% 30.42 0.0
21 13:15 Calm 10.00 Mostly Cloudy SCT050 SCT070 BKN100 63.1 51.8 67% 30.43 0.0
21 12:55 Calm 7.00 Rain SCT050 BKN100 OVC110 64.8 48 55% 30.43 0.0
21 12:35 Calm 10.00 Thunderstorm in Vicinity SCT100 66.2 47.3 51% 30.44 0.0
21 12:15 Calm 10.00 Fair CLR 67.3 46.6 48% 30.45 0.0
21 11:55 Calm 10.00 Thunderstorm in Vicinity CLR 64.4 49.1 64.9 51.8 58% 30.45 0.0
21 11:35 Calm 10.00 Light Rain SCT025 SCT050 BKN070 60.8 50 68% 30.46 0.0
21 11:15 Calm 10.00 Thunderstorm Light Rain SCT046 OVC070 61.3 49.3 65% 30.47 0.0
21 10:55 Calm 10.00 Mostly Cloudy SCT048 BKN090 64.2 44.8 49% 30.47 0.0
21 10:35 Calm 10.00 Partly Cloudy SCT090 SCT120 63.1 45.1 52% 30.47 0.0
21 10:15 Calm 10.00 Mostly Cloudy BKN100 BKN120 60.8 44.8 56% 30.48 0.0
21 09:55 Calm 10.00 Partly Cloudy SCT100 62.2 45.5 54% 30.48 0.0
21 09:35 Calm 10.00 Fair CLR 61.9 45.1 54% 30.48 0.0
21 09:15 Calm 10.00 Fair CLR 61.3 46.2 58% 30.48 0.0
21 08:55 Calm 10.00 Partly Cloudy SCT110 59.2 45.7 61% 30.49 0.0
21 08:35 Calm 10.00 Partly Cloudy SCT110 57.6 45.5 64% 30.49 0.0
21 08:15 Calm 10.00 Partly Cloudy SCT120 55.2 45.5 70% 30.5 0.0
21 07:55 Calm 10.00 Overcast OVC120 54.7 45.5 71% 30.5 0.0
21 07:35 Calm 10.00 Overcast SCT033 OVC110 54 45.7 74% 30.5 0.0
21 07:15 Calm 10.00 Overcast BKN033 OVC110 52.3 45.5 78% 30.5 0.0
21 06:55 Calm 10.00 Overcast BKN033 OVC110 51.8 45.5 79% 30.49 0.0
21 06:35 Calm 10.00 Overcast BKN033 OVC110 51.8 45.3 79% 30.5 0.0
21 06:15 Calm 10.00 Overcast OVC033 51.8 45.1 78% 30.5 0.0
21 05:55 Calm 10.00 Overcast SCT024 OVC033 52.5 44.8 60.8 52.5 75% 30.49 0.0
21 05:35 Calm 10.00 Overcast BKN024 OVC033 53.1 45 74% 30.49 0.0
21 05:15 Calm 10.00 Overcast OVC024 53.6 45.1 73% 30.49 0.0
21 04:35 Calm 10.00 Overcast SCT026 OVC030 53.2 45.5 75% 30.5 0.0
21 04:15 Calm 10.00 Overcast BKN022 OVC027 53.6 45.7 75% 30.51 0.0
21 03:55 Calm 10.00 Overcast OVC023 54.9 46 72% 30.51 0.0
21 03:35 Calm 10.00 Overcast BKN025 OVC031 54.9 46.4 73% 30.51 0.0
21 03:15 Calm 10.00 Overcast SCT019 BKN029 OVC040 56.1 47.5 73% 30.52 0.0
21 02:55 Calm 10.00 Overcast SCT031 OVC040 56.3 46 69% 30.52 0.0
21 02:35 Calm 10.00 Overcast OVC040 56.5 45.7 67% 30.52 0.0
21 02:15 Calm 10.00 Overcast BKN038 OVC048 57 44.1 62% 30.53 0.0
21 01:55 Calm 10.00 Overcast BKN038 OVC055 56.5 44.2 64% 30.54 0.0
21 01:35 Calm 10.00 Mostly Cloudy SCT034 BKN055 BKN070 55.9 45 67% 30.53 0.0
21 01:15 Calm 10.00 Overcast BKN034 BKN055 OVC070 56.5 45.3 66% 30.54 0.0
21 00:55 Calm 10.00 Overcast BKN034 OVC060 58.5 46.4 64% 30.54 0.0
21 00:35 Calm 10.00 Overcast SCT049 OVC060 58.8 48.7 69% 30.53 0.0
Date Time (mdt) Wind (mph) Vis. (mi.) Weather Sky Cond. Air Dwpt Max. Min. Relative Humidity Wind Chill (°F) Heat Index (°F) altimeter (in) sea level (mb) 1 hr 3 hr 6 hr
6 hour
Temperature (ºF) Pressure Precipitation (in)